sat.trackr.live / text

‹ back to catalog

STARLINK-3896

NORAD 52456 · 2022-049F

PAYLOAD ACTIVE UNKNOWN

§ Identity

Operator
Country
US
Launch date
2022-05-06
Launch site
AFETR
Launch vehicle
Mass (kg)
RCS (m²)

Purposes: comms

External: N2YO · Heavens-Above · Gunter

§ Orbital elements

Epoch: 2026-05-25T04:55:50.600928Z

Period
95.44 min
Inclination
53.2125°
Eccentricity
0.0001507
Mean motion
15.08845687 rev/d
Perigee alt
538.7 km
Apogee alt
540.8 km
Semi-major
6,917.9 km
B*
-1.1268e-4
RAAN
85.6279°
Arg perigee
94.0403°
Mean anomaly
266.0761°
Rev number
22,366

§ Raw data

STARLINK-38961 52456U 22049F   26145.20544677 -.00002081  00000+0 -11268-3 0  99952 52456  53.2125  85.6279 0001507  94.0403 266.0761 15.08845687223661

JSON: /api/v1/satellites/52456 · /tle

For live sub-satellite position, see the globe view (requires WebGL).

§ Visibility from observer

Set your observer location to see the next 7 days of passes ≥ 10°. The values pass through the URL so the page stays shareable.

No JS? Fill the form by hand. The geolocation button needs JavaScript.